NO-83 (40655 NORAD) Tracking and Keplerian Element Data

This shows tracking and keplerian element data for the satellite.

Feedback or suggestion? Click here.




ElementValue
Catalog40655
NameNO-83
Epoch Orbit13585
Epoch Day308.84593714
Epoch Year2019
RAAN101.1838
Inclination54.9504
Eccentricity0.000887
Argument of Perigee21.8665
Mean Anonmoly339.4822
Mean Motion16.22237122
Decay Rate0.01177273
L11 40655U 15025E 19308.84593714 .01177273 11630-4 49551-3 0 9715
L22 40655 54.9504 101.1838 0008870 21.8665 339.4822 16.22237122135853



Live tracking and technical data element details for NO-83 (NORAD 40655). NO-83 can be tracked NOW for your location showing map with azimuth and elevation plus other details from your city location.







IsCatalogInMostPopularTable: catalog: 40655, numindb: 407
Update: records affected: 1



GetName: 40655 NO-83

Hit Count: updated at: Thu, 23 Jan 2025 17:41:18 GMT